Regional Weather Roundup
Issued by NWS Bismarck, ND

Home | Current Version | Previous Version | Text Only | Print | Product List | Glossary On
Versions: 1 2 3 4 5 6 7 8 9 10 11 12 13 14 15 16 17 18 19 20 21 22 23 24 25 26 27 28 29 30 31 32 33 34 35 36 37 38 39 40 41 42 43 44 45 46 47 48 49 50
000
ASUS43 KBIS 301020
RWRBIS

NWR BROADCAST TEXT
NATIONAL WEATHER SERVICE BISMARCK ND
500 AM CDT TUE SEP 30 2014

NOTE: "FAIR" INDICATES FEW OR NO CLOUDS BELOW 12,000 FEET WITH NO
SIGNIFICANT WEATHER AND/OR OBSTRUCTIONS TO VISIBILITY.


CITY           SKY/WX    TMP DP  RH WIND       PRES   REMARKS
WILLISTON      LGT RAIN  53  51  93 SE9       29.76F
MINOT          CLOUDY    51  47  86 E10       29.82F
MINOT AFB      CLOUDY    51  49  95 E12       29.82F
BISMARCK       CLOUDY    54  50  86 E13       29.81F
DICKINSON      LGT RAIN  52  51  97 E12       29.73F
GARRISON         N/A     53  51  93 SE12G20   29.80F
HETTINGER ARPT RAIN      52  50  93 E15       29.71F FOG
JAMESTOWN      CLOUDY    48  45  89 SE15G24   29.90F
BEACH          LGT RAIN  50  50 100 SE7       29.74F
CARRINGTON     CLOUDY    46  46 100 SE14      29.89F
CROSBY         CLOUDY    50  50 100 SE9       29.78F
HARVEY         CLOUDY    48  48 100 SE13      29.86F
HAZEN          CLOUDY    52  50  93 E8        29.79F
LINTON         FAIR      52  50  93 SE18G28   29.77F
MANDAN         CLOUDY    54  50  87 E10G16    29.79F
OAKES            N/A     46  46 100 E15G21    29.89F
RUGBY          CLOUDY    48  46  93 SE14      29.88F
STANLEY        CLOUDY    50  50 100 SE8       29.78F
TIOGA          LGT RAIN  50  50 100 E6        29.81F
WATFORD CITY   LGT RAIN  50  50 100 E7        29.75F
$$

CITY           SKY/WX    TMP DP  RH WIND       PRES   REMARKS
GRAND FORKS    PTCLDY    43  41  93 SE7       30.00F
GRAND FORKS AF PTCLDY    41  40  99 SE7       29.99F
DEVILS LAKE    CLOUDY    48  39  71 SE20      29.91F
FARGO          PTCLDY    45  41  86 SE12      29.99F
CANDO          CLOUDY    48  46  93 SE13      29.92F
CAVALIER       FAIR      43  41  93 SE6       30.00S
GRAFTON        FAIR      39  39 100 E7        30.00F
GWINNER        CLOUDY    48  46  93 SE16      29.93F
LANGDON        CLOUDY    45  45 100 SE13      29.95F
ROLLA          CLOUDY    46  46 100 SE9       29.91F
WALHALLA       CLOUDY    41  41 100 SE6       29.99F
$$

CITY           SKY/WX    TMP DP  RH WIND       PRES   REMARKS
ABERDEEN       CLOUDY    53  48  83 E8        29.85F
MOBRIDGE       CLOUDY    55  50  83 E18G26    29.72F
BUFFALO          N/A     51  51 100 NE13      29.63F
RAPID CITY     FOG       53  53 100 N17G24    29.56F VSB 3/4
GLASGOW        CLOUDY    51  48  89 SE10      29.70F
SIDNEY         CLOUDY    54  52  94 SE6       29.75F
WOLF POINT     CLOUDY    52  49  89 E7        29.73F
GLENDIVE       CLOUDY    52  52 100 E3        29.74F
MILES CITY     CLOUDY    52  49  89 SE3       29.71F
BAKER          LGT RAIN  52  52 100 E7        29.72F FOG
$$

CITY           SKY/WX    TMP DP  RH WIND       PRES   REMARKS
BILLINGS       PTCLDY    47  44  90 SW10      29.73S
GREAT FALLS    CLOUDY    54  43  66 SW10      29.69S
REGINA         LGT RAIN  48  48 100 SE14      29.75F
ESTEVAN        LGT RAIN  50  50 100 SE13      29.79F FOG
$$




USA.gov is the U.S. government's official web portal to all federal, state and local government web resources and services.